Flag for Western Sahara Weather past 2 weeks in El Aaiún, Western Sahara

Now
72 °F

Scattered clouds.


Feels Like: 76 °F
Forecast: 59 / 75 °F
Wind: 10 mph from Northwest

Location: Laayoune/Hassan Isl


UV Index: 7 (High)

Visibility: N/A


Pressure: 30.04 "Hg

Humidity: 61%

Dew point: 57 °F

Location of El AaiúnLocation

Historic Weather in El Aaiún

°F

El Aaiún temperature yesterday

Maximum temperature yesterday: 77 °F (at 2:00 PM)
Minimum temperature yesterday: 59 °F (at 6:00 AM)
Average temperature yesterday: 67 °F

Past Weeks' High & Low Weather Summary

 TemperatureHumidityPressure
High88 °F (Apr 13, 2:00 PM)94% (Apr 6, 9:05 PM)30.15 "Hg (Apr 6, 9:05 PM)
Low57 °F (Apr 5, 4:00 AM)24% (Apr 13, 2:00 PM)29.86 "Hg (Apr 9, 4:00 PM)
Average67 °F71%29.98 "Hg
* Reported Apr 4 1:00 PM — Apr 19 1:00 PM, El Aaiún, Weather by CustomWeather, © 2014

Note: Actual official high and low records may vary slightly from our data, if they occured in-between our weather recording intervals... More about our weather records

Advertising

Historic Weather Conditions — Data for Previous 24 hours

 ConditionsComfort  
Time TempWeatherWind HumidityBarometerVisibility
1:00 PM
Apr 19
72 °FScattered clouds.10 mph61%30.04 "HgN/A
12:00 PM70 °FScattered clouds.10 mph64%30.04 "HgN/A
11:00 AM68 °FSunny.7 mph69%30.04 "Hg10 mi
10:00 AM68 °FSunny.No wind69%30.01 "Hg10 mi
9:00 AM64 °FSunny.2 mph73%29.95 "Hg10 mi
8:00 AM63 °FClear.5 mph77%29.95 "Hg10 mi
7:00 AM63 °FClear.1 mph77%29.98 "Hg10 mi
6:00 AM63 °FClear.3 mph77%29.98 "Hg10 mi
4:00 AM63 °FClear.7 mph77%29.95 "Hg10 mi
3:00 AM63 °FClear.10 mph77%29.98 "Hg10 mi
1:00 AM63 °FPassing clouds.13 mph77%30.07 "HgN/A
12:00 AM64 °FClear.12 mph73%30.04 "Hg10 mi
11:00 PM
Apr 18
64 °FClear.12 mph73%30.07 "Hg10 mi
10:00 PM64 °FClear.15 mph73%30.04 "Hg10 mi
8:00 PM68 °FSunny.16 mph64%29.98 "Hg10 mi
7:00 PM72 °FSunny.18 mph53%29.95 "Hg10 mi
6:00 PM73 °FSunny.18 mph50%29.95 "Hg10 mi
5:00 PM73 °FSunny.23 mph53%29.98 "Hg10 mi
4:00 PM75 °FSunny.22 mph50%29.98 "Hg10 mi
3:00 PM77 °FSunny.15 mph44%29.98 "Hg10 mi
2:00 PM77 °FSunny.16 mph42%30.01 "Hg10 mi
1:00 PM75 °FSunny.14 mph44%30.04 "Hg10 mi
Weather by CustomWeather, © 2014

See weather overview